When you browse on this site, cookies collect data to enhance your experience and personalize the content and advertising you see.
Visit our Privacy Policy to learn more. By continuing to use the site, you agree to this use of cookies and data.
  • In United Kingdom
  • List of Countries
  • For 7 days
  • Water Temperature
  • Weather Map
  • Weather Widgets
  • user-avatar
    Login

    Hourly Weather Herborn

    Today, 30 May, Saturday

    Time Temperature Precipitation Wind Pressure Humidity
    00:00 +9°C° 0 mm 2 mps 746 mmHg 82%
    01:00 +9°C° 0 mm 2 mps 746 mmHg 87%
    02:00 +8°C° 0 mm 2 mps 746 mmHg 88%
    03:00 +8°C° 0 mm 2 mps 746 mmHg 89%
    04:00 +8°C° 0 mm 2 mps 745 mmHg 91%
    05:00 +9°C° 0 mm 2 mps 746 mmHg 84%
    06:00 +12°C° 0 mm 2 mps 746 mmHg 78%
    07:00 +14°C° 0 mm 2 mps 746 mmHg 70%
    08:00 +14°C° 0 mm 3 mps 746 mmHg 61%
    09:00 +17°C° 0 mm 4 mps 746 mmHg 52%
    10:00 +17°C° 0 mm 5 mps 745 mmHg 42%
    11:00 +19°C° 0 mm 5 mps 745 mmHg 42%
    12:00 +19°C° 0 mm 5 mps 745 mmHg 42%
    13:00 +20°C° 0 mm 5 mps 745 mmHg 41%
    14:00 +19°C° 0 mm 5 mps 745 mmHg 43%
    15:00 +19°C° 0 mm 5 mps 745 mmHg 44%
    16:00 +19°C° 0 mm 5 mps 744 mmHg 46%
    17:00 +18°C° 0 mm 4 mps 744 mmHg 51%
    18:00 +17°C° 0 mm 4 mps 744 mmHg 57%
    19:00 +16°C° 0 mm 3 mps 744 mmHg 62%
    20:00 +14°C° 0 mm 2 mps 744 mmHg 70%
    21:00 +12°C° 0 mm 2 mps 745 mmHg 77%
    22:00 +9°C° 0 mm 2 mps 745 mmHg 84%
    23:00 +9°C° 0 mm 2 mps 745 mmHg 86%

    Tomorrow, 31 May, Sunday

    Time Temperature Precipitation Wind Pressure Humidity
    00:00 +9°C° 0 mm 1 mps 745 mmHg 89%
    01:00 +9°C° 0 mm 1 mps 745 mmHg 91%
    02:00 +8°C° 0 mm 1 mps 745 mmHg 91%
    03:00 +7°C° 0 mm 2 mps 745 mmHg 91%
    04:00 +6°C° 0 mm 2 mps 744 mmHg 91%
    05:00 +7°C° 0 mm 2 mps 744 mmHg 84%
    06:00 +9°C° 0 mm 3 mps 745 mmHg 77%
    07:00 +10°C° 0 mm 3 mps 745 mmHg 70%
    08:00 +11°C° 0 mm 3 mps 745 mmHg 64%
    09:00 +13°C° 0 mm 4 mps 745 mmHg 58%
    10:00 +14°C° 0 mm 4 mps 745 mmHg 52%
    11:00 +15°C° 0 mm 4 mps 745 mmHg 51%
    12:00 +18°C° 0 mm 4 mps 744 mmHg 49%
    13:00 +19°C° 0 mm 4 mps 744 mmHg 48%
    14:00 +19°C° 0 mm 4 mps 744 mmHg 49%
    15:00 +19°C° 0 mm 4 mps 744 mmHg 50%
    16:00 +19°C° 0 mm 4 mps 744 mmHg 51%
    17:00 +18°C° 0 mm 4 mps 744 mmHg 56%
    18:00 +17°C° 0 mm 3 mps 744 mmHg 61%
    19:00 +17°C° 0 mm 3 mps 744 mmHg 66%
    20:00 +14°C° 0 mm 3 mps 744 mmHg 74%
    21:00 +13°C° 0 mm 2 mps 744 mmHg 82%
    22:00 +12°C° 0 mm 2 mps 744 mmHg 89%
    23:00 +10°C° 0 mm 2 mps 744 mmHg 91%

    Day after tomorrow, 1 June, Monday

    Time Temperature Precipitation Wind Pressure Humidity
    00:00 +10°C° 0 mm 2 mps 744 mmHg 93%
    01:00 +9°C° 0 mm 2 mps 744 mmHg 95%
    02:00 +9°C° 0 mm 2 mps 744 mmHg 95%
    03:00 +8°C° 0 mm 2 mps 744 mmHg 95%
    04:00 +8°C° 0 mm 2 mps 744 mmHg 96%
    05:00 +9°C° 0 mm 2 mps 744 mmHg 90%
    06:00 +12°C° 0 mm 2 mps 744 mmHg 84%
    07:00 +13°C° 0 mm 2 mps 744 mmHg 79%
    08:00 +14°C° 0 mm 3 mps 744 mmHg 71%
    09:00 +17°C° 0 mm 3 mps 744 mmHg 64%
    10:00 +19°C° 0 mm 4 mps 745 mmHg 56%
    11:00 +20°C° 0 mm 4 mps 744 mmHg 52%
    12:00 +21°C° 0 mm 4 mps 744 mmHg 48%
    13:00 +22°C° 0 mm 5 mps 744 mmHg 44%
    14:00 +22°C° 0 mm 5 mps 744 mmHg 46%
    15:00 +22°C° 0 mm 5 mps 744 mmHg 47%
    16:00 +22°C° 0 mm 4 mps 743 mmHg 49%
    17:00 +21°C° 0 mm 4 mps 743 mmHg 54%
    18:00 +20°C° 0 mm 4 mps 743 mmHg 60%
    19:00 +19°C° 0 mm 4 mps 743 mmHg 66%
    20:00 +17°C° 0 mm 3 mps 743 mmHg 71%
    21:00 +16°C° 0 mm 3 mps 743 mmHg 76%
    22:00 +13°C° 0 mm 3 mps 744 mmHg 81%
    23:00 +12°C° 0 mm 3 mps 743 mmHg 83%

    2 June, Tuesday

    Time Temperature Precipitation Wind Pressure Humidity
    00:00 +12°C° 0 mm 3 mps 743 mmHg 86%
    01:00 +12°C° 0 mm 2 mps 743 mmHg 88%
    02:00 +10°C° 0 mm 2 mps 743 mmHg 89%
    03:00 +10°C° 0 mm 2 mps 743 mmHg 90%
    04:00 +9°C° 0 mm 2 mps 743 mmHg 91%
    05:00 +10°C° 0 mm 2 mps 743 mmHg 84%
    06:00 +13°C° 0 mm 2 mps 743 mmHg 77%
    07:00 +14°C° 0 mm 2 mps 743 mmHg 70%
    08:00 +16°C° 0 mm 3 mps 743 mmHg 63%
    09:00 +18°C° 0 mm 3 mps 743 mmHg 56%
    10:00 +19°C° 0 mm 4 mps 743 mmHg 48%
    11:00 +20°C° 0 mm 4 mps 742 mmHg 47%
    12:00 +21°C° 0 mm 4 mps 742 mmHg 45%
    13:00 +22°C° 0 mm 4 mps 742 mmHg 43%
    14:00 +22°C° 0 mm 4 mps 741 mmHg 44%
    15:00 +23°C° 0 mm 4 mps 740 mmHg 45%
    16:00 +23°C° 0 mm 4 mps 740 mmHg 45%
    17:00 +22°C° 0 mm 4 mps 739 mmHg 52%
    18:00 +21°C° 0 mm 4 mps 739 mmHg 58%
    19:00 +20°C° 0 mm 3 mps 738 mmHg 64%
    20:00 +18°C° 0 mm 3 mps 738 mmHg 69%
    21:00 +16°C° 0 mm 3 mps 738 mmHg 74%
    22:00 +14°C° 0 mm 3 mps 738 mmHg 79%
    23:00 +13°C° 0 mm 3 mps 738 mmHg 83%

    3 June, Wednesday

    Time Temperature Precipitation Wind Pressure Humidity
    00:00 +13°C° 0 mm 2 mps 738 mmHg 87%
    01:00 +12°C° 0 mm 2 mps 737 mmHg 91%
    02:00 +12°C° 0 mm 2 mps 737 mmHg 91%
    03:00 +10°C° 0 mm 2 mps 737 mmHg 92%
    04:00 +9°C° 0 mm 2 mps 737 mmHg 92%
    05:00 +12°C° 0 mm 2 mps 737 mmHg 85%
    06:00 +14°C° 0 mm 2 mps 737 mmHg 78%
    07:00 +14°C° 0 mm 3 mps 737 mmHg 70%
    08:00 +17°C° 0 mm 3 mps 737 mmHg 64%
    09:00 +19°C° 0 mm 4 mps 737 mmHg 57%
    10:00 +21°C° 0 mm 4 mps 737 mmHg 51%
    11:00 +22°C° 0 mm 4 mps 737 mmHg 48%
    12:00 +23°C° 0 mm 4 mps 736 mmHg 46%
    13:00 +25°C° 0 mm 4 mps 736 mmHg 43%
    14:00 +25°C° 0 mm 4 mps 736 mmHg 44%
    15:00 +25°C° 0 mm 4 mps 736 mmHg 44%
    16:00 +25°C° 0 mm 4 mps 736 mmHg 45%
    17:00 +23°C° 0 mm 4 mps 735 mmHg 52%
    18:00 +22°C° 0 mm 4 mps 735 mmHg 58%
    19:00 +21°C° 0 mm 3 mps 735 mmHg 65%
    20:00 +19°C° 0 mm 3 mps 736 mmHg 72%
    21:00 +17°C° 0 mm 3 mps 736 mmHg 79%
    22:00 +15°C° 0 mm 2 mps 736 mmHg 86%
    23:00 +15°C° 0 mm 2 mps 736 mmHg 87%

    4 June, Thursday

    Time Temperature Precipitation Wind Pressure Humidity
    00:00 +14°C° 0 mm 2 mps 736 mmHg 89%
    01:00 +13°C° 0 mm 1 mps 736 mmHg 90%
    02:00 +13°C° 0 mm 1 mps 736 mmHg 91%
    03:00 +12°C° 0 mm 1 mps 736 mmHg 92%
    04:00 +12°C° 0 mm 1 mps 736 mmHg 93%
    05:00 +14°C° 0 mm 1 mps 736 mmHg 86%
    06:00 +15°C° 0 mm 1 mps 736 mmHg 79%
    07:00 +18°C° 0 mm 1 mps 736 mmHg 72%
    08:00 +19°C° 0 mm 2 mps 736 mmHg 64%
    09:00 +21°C° 0 mm 2 mps 736 mmHg 56%
    10:00 +22°C° 0 mm 3 mps 736 mmHg 49%
    11:00 +24°C° 0 mm 3 mps 736 mmHg 45%
    12:00 +25°C° 0 mm 3 mps 736 mmHg 42%
    13:00 +26°C° 0 mm 3 mps 735 mmHg 39%
    14:00 +26°C° 0 mm 3 mps 735 mmHg 38%
    15:00 +26°C° 0 mm 3 mps 735 mmHg 38%
    16:00 +26°C° 0 mm 3 mps 734 mmHg 38%
    17:00 +25°C° 0 mm 2 mps 734 mmHg 45%
    18:00 +24°C° 0 mm 2 mps 734 mmHg 53%
    19:00 +23°C° 0 mm 1 mps 733 mmHg 60%
    20:00 +21°C° 0 mm 1 mps 733 mmHg 64%
    21:00 +19°C° 0 mm 1 mps 733 mmHg 68%
    22:00 +16°C° 0 mm 1 mps 733 mmHg 72%
    23:00 +15°C° 0 mm 1 mps 733 mmHg 75%
    Show more